Location: Unspecified
(50.0077°N, 36.2988°E)
Time: 04:26:35
(UTC+00:00)

X-37B - Pass Details

Date: 22 September 2020
Orbit: 382 x 392 km, 45.0° (Epoch: 15 October)

Event Time Altitude Azimuth Distance (km) Brightness Sun altitude
Exits shadow 01:14:03 19° 145° (SE) 998 2.7 -20.5°
Drops below altitude 10° 01:15:17 10° 129° (SE) 1,401 3.7 -20.4°
Sets 01:17:30 0° 117° (ESE) 2,255 5.0 -20.0°
